KO4LFZ Weather Reports


time (UTC)temp
C
wind
direction
speed
KPH
gust
KPH
rain 1hr
cm
rain 24hr
cm
rain mn
cm
humidity
%
barometer
mb
20260510224852 22 11 0.0 0.0 0.00 0.00 0.00 59 1016.5
20260510224349 22 19 0.0 0.0 0.00 0.00 0.00 59 1016.8
20260510223846 22 40 0.0 0.0 0.00 0.00 0.00 57 1016.7
20260510223343 22 357 0.0 0.0 0.00 0.00 0.00 57 1016.5
20260510222841 22 20 0.0 0.0 0.00 0.00 0.00 59 1016.7
20260510222338 22 17 0.0 0.0 0.00 0.00 0.00 57 1016.6
20260510221833 22 12 0.0 0.0 0.00 0.00 0.00 57 1016.6
20260510221330 22 40 0.0 0.0 0.00 0.00 0.00 59 1016.4
20260510220826 22 25 0.0 0.0 0.00 0.00 0.00 58 1016.4
20260510220322 22 19 0.0 9.7 0.00 0.00 0.00 59 1016.3
20260510215819 22 8 0.0 0.0 0.00 0.00 0.00 58 1016.3
20260510215316 23 351 0.0 0.0 0.00 0.00 0.00 61 1016.4
20260510214814 23 12 0.0 14.5 0.00 0.00 0.00 59 1016.2
20260510214310 23 5 0.0 4.8 0.00 0.00 0.00 60 1016.3
20260510213808 23 355 0.0 12.9 0.00 0.00 0.00 60 1016.2
20260510213304 23 9 0.0 0.0 0.00 0.00 0.00 63 1016.2
20260510212800 23 24 0.0 11.3 0.00 0.00 0.00 63 1016.3
20260510212258 23 30 0.0 9.7 0.00 0.00 0.00 64 1016.5
20260510211754 23 27 0.0 0.0 0.00 0.00 0.00 64 1016.2
20260510211250 23 14 0.0 0.0 0.00 0.00 0.00 65 1016.2
20260510210746 23 15 0.0 4.8 0.00 0.00 0.00 64 1016.0
20260510210240 23 42 0.0 0.0 0.00 0.00 0.00 66 1016.1
20260510205735 23 19 0.0 0.0 0.00 0.00 0.00 64 1016.3
20260510205230 23 15 4.8 12.9 0.00 0.00 0.00 63 1016.2
20260510204727 24 9 0.0 8.0 0.00 0.00 0.00 64 1016.2
20260510204223 24 34 0.0 9.7 0.00 0.00 0.00 63 1016.1
20260510203720 24 23 1.6 3.2 0.00 0.00 0.00 64 1016.0
20260510203217 25 32 0.0 8.0 0.00 0.00 0.00 63 1015.9
20260510202712 26 15 3.2 17.7 0.00 0.00 0.00 60 1016.0
20260510202207 26 359 0.0 14.5 0.00 0.00 0.00 59 1015.9
20260510201705 26 325 0.0 0.0 0.00 0.00 0.00 56 1016.2
20260510201201 26 329 0.0 0.0 0.00 0.00 0.00 58 1015.9
20260510200657 26 346 0.0 0.0 0.00 0.00 0.00 58 1016.1
20260510200156 26 352 0.0 0.0 0.00 0.00 0.00 58 1016.2
20260510195653 26 3 0.0 0.0 0.00 0.00 0.00 58 1016.3
20260510195149 26 26 0.0 0.0 0.00 0.00 0.00 59 1016.4
20260510194648 26 281 0.0 0.0 0.00 0.00 0.00 59 1016.2
20260510194145 26 343 0.0 0.0 0.00 0.00 0.00 59 1016.3
20260510193640 25 0 0.0 0.0 0.00 0.00 0.00 60 1016.3
20260510193136 25 352 0.0 0.0 0.00 0.00 0.00 60 1016.4
20260510192631 25 23 0.0 0.0 0.00 0.00 0.00 61 1016.4
20260510192127 25 21 0.0 0.0 0.00 0.00 0.00 61 1016.2
20260510191624 26 51 0.0 0.0 0.00 0.00 0.00 61 1016.4
20260510191120 26 40 0.0 0.0 0.00 0.00 0.00 57 1016.4
20260510190617 26 338 0.0 0.0 0.00 0.00 0.00 57 1016.3
20260510190115 26 14 0.0 0.0 0.00 0.00 0.00 58 1016.3
20260510185611 27 325 0.0 0.0 0.00 0.00 0.00 56 1016.4
20260510185109 26 19 0.0 0.0 0.00 0.00 0.00 55 1016.3
20260510184606 26 19 0.0 0.0 0.00 0.00 0.00 55 1016.3
20260510184102 26 67 0.0 0.0 0.00 0.00 0.00 55 1016.3
20260510183557 26 271 0.0 0.0 0.00 0.00 0.00 55 1016.3
20260510183052 26 353 0.0 0.0 0.00 0.00 0.00 54 1016.4
20260510182549 26 318 0.0 0.0 0.00 0.00 0.00 53 1016.3
20260510182044 26 318 0.0 0.0 0.00 0.00 0.00 53 1016.3
20260510181543 26 296 0.0 0.0 0.00 0.00 0.00 53 1016.2
20260510181038 25 266 0.0 0.0 0.00 0.00 0.00 55 1016.3
20260510180530 25 77 0.0 0.0 0.00 0.00 0.00 57 1016.2
20260510180028 26 57 0.0 0.0 0.00 0.00 0.00 57 1016.1
20260510175522 26 339 0.0 0.0 0.00 0.00 0.00 54 1016.1
20260510175019 25 327 0.0 0.0 0.00 0.00 0.00 54 1016.3
20260510174517 25 305 0.0 0.0 0.00 0.00 0.00 54 1016.4
20260510174014 25 350 0.0 0.0 0.00 0.00 0.00 56 1016.4
20260510173509 25 19 0.0 0.0 0.00 0.00 0.00 58 1016.4
20260510173006 25 4 0.0 0.0 0.00 0.00 0.00 57 1016.4
20260510172501 25 310 0.0 1.6 0.00 0.00 0.00 59 1016.4
20260510171958 25 340 0.0 0.0 0.00 0.00 0.00 57 1016.4
20260510171455 25 19 0.0 0.0 0.00 0.00 0.00 59 1016.7
20260510170951 25 322 0.0 0.0 0.00 0.00 0.00 58 1016.9
20260510170448 25 342 0.0 0.0 0.00 0.00 0.00 59 1016.7
20260510165944 25 7 0.0 0.0 0.00 0.00 0.00 60 1016.7
20260510165441 24 358 0.0 0.0 0.00 0.00 0.00 63 1016.6
20260510164937 25 355 0.0 0.0 0.00 0.00 0.00 61 1016.7
20260510164434 25 339 0.0 0.0 0.00 0.00 0.00 60 1016.6
20260510163934 25 339 0.0 0.0 0.00 0.00 0.00 60 1016.6
20260510163431 25 328 0.0 0.0 0.00 0.00 0.00 62 1016.9
20260510162925 25 30 0.0 0.0 0.00 0.00 0.00 59 1016.8
20260510162423 25 346 0.0 0.0 0.00 0.00 0.00 60 1016.5
20260510161919 25 1 0.0 0.0 0.00 0.00 0.00 60 1016.5
20260510161414 25 28 0.0 0.0 0.00 0.00 0.00 60 1016.7
20260510160911 25 348 0.0 0.0 0.00 0.00 0.00 59 1016.7
20260510160409 25 341 0.0 3.2 0.00 0.00 0.00 59 1016.5
20260510155902 25 339 0.0 0.0 0.00 0.00 0.00 61 1016.5
20260510155359 25 8 0.0 0.0 0.00 0.00 0.00 58 1016.4
20260510154855 25 6 0.0 0.0 0.00 0.00 0.00 56 1016.4
20260510154352 25 348 0.0 0.0 0.00 0.00 0.00 53 1016.4
20260510153845 25 351 0.0 0.0 0.00 0.00 0.00 53 1016.3
20260510153341 25 281 0.0 0.0 0.00 0.00 0.00 52 1016.1
20260510152838 25 223 0.0 0.0 0.00 0.00 0.00 53 1016.2
20260510152336 25 236 0.0 0.0 0.00 0.00 0.00 53 1016.1
20260510151832 25 310 0.0 0.0 0.00 0.00 0.00 51 1016.1
20260510151330 25 330 0.0 0.0 0.00 0.00 0.00 50 1015.9
20260510150825 25 297 0.0 0.0 0.00 0.00 0.00 51 1015.7
20260510150321 25 274 0.0 0.0 0.00 0.00 0.00 55 1015.6
20260510145818 25 310 0.0 0.0 0.00 0.00 0.00 53 1015.7
20260510145314 25 278 0.0 0.0 0.00 0.00 0.00 53 1015.8
20260510144811 25 276 0.0 0.0 0.00 0.00 0.00 52 1015.7
20260510144308 24 259 0.0 0.0 0.00 0.00 0.00 53 1015.6
20260510143807 24 243 0.0 0.0 0.00 0.00 0.00 53 1015.6
20260510143304 24 249 0.0 0.0 0.00 0.00 0.00 54 1015.9
20260510142800 24 245 0.0 0.0 0.00 0.00 0.00 56 1015.7
20260510142257 24 210 0.0 0.0 0.00 0.00 0.00 57 1015.7
20260510141754 24 230 0.0 0.0 0.00 0.00 0.00 58 1015.7
20260510141252 23 219 0.0 0.0 0.00 0.00 0.00 57 1015.5
20260510140749 23 234 0.0 0.0 0.00 0.00 0.00 59 1015.5
20260510140244 23 206 0.0 0.0 0.00 0.00 0.00 59 1015.3
20260510135738 23 218 0.0 0.0 0.00 0.00 0.00 60 1015.6
20260510135234 23 213 0.0 0.0 0.00 0.00 0.00 63 1015.4
20260510134732 22 205 0.0 0.0 0.00 0.00 0.00 62 1015.3
20260510134229 22 210 0.0 0.0 0.00 0.00 0.00 64 1015.4
20260510133724 21 206 0.0 0.0 0.00 0.00 0.00 66 1015.4
20260510133220 21 201 0.0 0.0 0.00 0.00 0.00 67 1015.6
20260510132716 20 202 0.0 0.0 0.00 0.00 0.00 71 1015.5
20260510132214 20 192 0.0 0.0 0.00 0.00 0.00 73 1015.3
20260510131711 20 200 0.0 0.0 0.00 0.00 0.00 73 1015.4
20260510131209 19 193 0.0 0.0 0.00 0.00 0.00 74 1015.8
20260510130705 18 200 0.0 0.0 0.00 0.00 0.00 74 1015.6
20260510130203 18 204 0.0 0.0 0.00 0.00 0.00 76 1015.4
20260510125658 18 198 0.0 0.0 0.00 0.00 0.00 78 1015.3
20260510125155 18 192 0.0 0.0 0.00 0.00 0.00 77 1015.5
20260510124652 18 209 0.0 0.0 0.00 0.00 0.00 77 1015.6
20260510124149 17 206 0.0 0.0 0.00 0.00 0.00 78 1015.3
20260510123644 17 205 0.0 0.0 0.00 0.00 0.00 79 1015.2
20260510123140 17 206 0.0 0.0 0.00 0.00 0.00 79 1015.3
20260510122637 17 203 0.0 0.0 0.00 0.00 0.00 82 1015.1
20260510122133 16 223 0.0 0.0 0.00 0.00 0.00 81 1015.2
20260510121630 16 225 0.0 0.0 0.00 0.00 0.00 83 1015.2
20260510121127 16 217 0.0 0.0 0.00 0.00 0.00 85 1015.0
20260510120625 15 206 0.0 0.0 0.00 0.00 0.00 83 1015.1
20260510120120 15 222 0.0 0.0 0.00 0.00 0.00 85 1015.2
20260510115617 15 226 0.0 0.0 0.00 0.00 0.00 86 1015.2
20260510115114 15 225 0.0 0.0 0.00 0.00 0.00 87 1015.1
20260510114610 15 227 0.0 0.0 0.00 0.00 0.00 86 1015.1
20260510114106 15 223 0.0 0.0 0.00 0.00 0.00 87 1014.9
20260510113601 14 220 0.0 0.0 0.00 0.00 0.00 87 1014.8
20260510113059 13 205 0.0 0.0 0.00 0.00 0.00 87 1014.7
20260510112556 13 205 0.0 0.0 0.00 0.00 0.00 87 1014.4
20260510112052 13 207 0.0 0.0 0.00 0.00 0.00 88 1014.4
20260510111549 13 195 0.0 0.0 0.00 0.00 0.00 89 1014.3
20260510111045 13 206 0.0 0.0 0.00 0.00 0.00 88 1014.1
20260510110541 13 195 0.0 0.0 0.00 0.00 0.00 87 1014.1
20260510110037 13 203 0.0 0.0 0.00 0.00 0.00 87 1014.0
20260510105533 13 206 0.0 0.0 0.00 0.00 0.00 88 1014.0
20260510105028 13 230 0.0 0.0 0.00 0.00 0.00 87 1013.9
20260510104525 13 206 0.0 0.0 0.00 0.00 0.00 87 1014.0
20260510104020 13 222 0.0 0.0 0.00 0.00 0.00 85 1013.9
20260510103402 13 224 0.0 0.0 0.00 0.00 0.00 83 1014.0
20260510102857 13 224 0.0 0.0 0.00 0.00 0.00 83 1014.0
20260510102352 13 201 0.0 0.0 0.00 0.00 0.00 84 1014.1
20260510101850 13 226 0.0 0.0 0.00 0.00 0.00 83 1014.1
20260510101342 13 184 0.0 0.0 0.00 0.00 0.00 83 1014.2
20260510100838 13 213 0.0 0.0 0.00 0.00 0.00 83 1014.0
20260510100336 13 201 0.0 0.0 0.00 0.00 0.00 84 1013.8
20260510095832 13 268 0.0 0.0 0.00 0.00 0.00 85 1013.9
20260510095327 13 185 0.0 0.0 0.00 0.00 0.00 86 1014.0
20260510094821 13 350 0.0 0.0 0.00 0.00 0.00 86 1014.1
20260510094316 13 95 0.0 0.0 0.00 0.00 0.00 87 1013.5
20260510093813 13 5 0.0 0.0 0.00 0.00 0.00 87 1013.8
20260510093309 13 357 0.0 0.0 0.00 0.00 0.00 85 1013.8
20260510092806 13 339 0.0 0.0 0.00 0.00 0.00 84 1013.3
20260510092301 14 199 0.0 0.0 0.00 0.00 0.00 80 1013.2
20260510091757 15 233 0.0 0.0 0.00 0.00 0.00 77 1013.0
20260510091255 16 227 0.0 0.0 0.00 0.00 0.00 72 1013.1
20260510090751 17 189 0.0 0.0 0.00 0.00 0.00 66 1012.8
20260510090248 17 187 0.0 0.0 0.00 0.00 0.00 66 1012.8
20260510085744 16 207 0.0 0.0 0.00 0.00 0.00 69 1012.7
20260510085238 16 207 0.0 0.0 0.00 0.00 0.00 69 1012.7
20260510084734 15 177 0.0 0.0 0.00 0.00 0.00 75 1012.8
20260510084231 15 199 0.0 0.0 0.00 0.00 0.00 74 1012.9
20260510083727 15 213 0.0 0.0 0.00 0.00 0.00 75 1012.6
20260510083225 14 223 0.0 0.0 0.00 0.00 0.00 79 1012.6
20260510082720 14 223 0.0 0.0 0.00 0.00 0.00 79 1012.6
20260510082217 14 222 0.0 0.0 0.00 0.00 0.00 78 1012.6
20260510081716 15 209 0.0 0.0 0.00 0.00 0.00 80 1012.7
20260510081212 14 213 0.0 0.0 0.00 0.00 0.00 79 1012.6
20260510080707 15 224 0.0 0.0 0.00 0.00 0.00 76 1012.6
20260510080204 15 224 0.0 0.0 0.00 0.00 0.00 74 1012.3
20260510075701 16 223 0.0 0.0 0.00 0.00 0.00 70 1012.2
20260510075158 17 216 0.0 0.0 0.00 0.00 0.00 68 1012.1
20260510074655 17 209 0.0 0.0 0.00 0.00 0.00 64 1012.1
20260510074151 17 206 0.0 0.0 0.00 0.00 0.00 63 1012.1
20260510073648 17 190 0.0 0.0 0.00 0.00 0.00 64 1012.2
20260510073144 16 175 0.0 0.0 0.00 0.00 0.00 67 1012.2
20260510072640 16 216 0.0 0.0 0.00 0.00 0.00 72 1012.2
20260510072136 16 204 0.0 0.0 0.00 0.00 0.00 72 1012.4
20260510071626 16 217 0.0 0.0 0.00 0.00 0.00 70 1012.3
20260510071124 16 210 0.0 0.0 0.00 0.00 0.00 67 1012.5
20260510070621 16 214 0.0 0.0 0.00 0.00 0.00 67 1012.5
20260510070119 17 218 0.0 0.0 0.00 0.00 0.00 69 1012.4
20260510065615 17 215 0.0 0.0 0.00 0.00 0.00 68 1012.4
20260510065110 17 222 0.0 0.0 0.00 0.00 0.00 67 1012.5
20260510064606 18 222 0.0 0.0 0.00 0.00 0.00 66 1012.4
20260510064103 18 220 0.0 0.0 0.00 0.00 0.00 64 1012.6
20260510063555 18 202 0.0 0.0 0.00 0.00 0.00 60 1012.5
20260510063052 18 209 0.0 0.0 0.00 0.00 0.00 61 1012.4
20260510062548 18 193 0.0 0.0 0.00 0.00 0.00 61 1012.4
20260510062043 18 192 0.0 0.0 0.00 0.00 0.00 62 1012.1
20260510061540 18 187 0.0 0.0 0.00 0.00 0.00 61 1012.4
20260510061037 18 187 0.0 0.0 0.00 0.00 0.00 61 1012.4
20260510060533 18 194 0.0 0.0 0.00 0.00 0.00 60 1012.5
20260510060029 18 208 0.0 0.0 0.00 0.00 0.00 60 1012.2
20260510055525 19 190 0.0 0.0 0.00 0.00 0.00 59 1012.1
20260510055024 18 193 0.0 0.0 0.00 0.00 0.00 60 1012.2
20260510054520 18 207 0.0 0.0 0.00 0.00 0.00 61 1012.1
20260510054015 18 197 0.0 0.0 0.00 0.00 0.00 61 1012.1
20260510053510 18 193 0.0 0.0 0.00 0.00 0.00 61 1012.2
20260510053007 18 191 0.0 0.0 0.00 0.00 0.00 61 1012.2
20260510052503 18 192 0.0 0.0 0.00 0.00 0.00 61 1011.9
20260510051959 18 198 0.0 0.0 0.00 0.00 0.00 62 1011.9
20260510051454 18 195 0.0 0.0 0.00 0.00 0.00 62 1012.1
20260510050951 18 203 0.0 0.0 0.00 0.00 0.00 62 1012.1
20260510050449 18 195 0.0 0.0 0.00 0.00 0.00 61 1011.7
20260510045945 18 190 0.0 0.0 0.00 0.00 0.00 62 1011.9
20260510045443 18 197 0.0 0.0 0.00 0.00 0.00 61 1011.9
20260510044939 18 191 0.0 0.0 0.00 0.00 0.00 61 1011.9
20260510044436 19 191 0.0 0.0 0.00 0.00 0.00 61 1011.9
20260510043933 19 213 0.0 0.0 0.00 0.00 0.00 60 1011.5
20260510043428 19 213 0.0 0.0 0.00 0.00 0.00 60 1011.5
20260510042927 19 201 0.0 0.0 0.00 0.00 0.00 61 1011.8
20260510042423 19 188 0.0 0.0 0.00 0.00 0.00 61 1011.7
20260510041918 19 173 0.0 0.0 0.00 0.00 0.00 59 1011.9
20260510041416 20 200 0.0 0.0 0.00 0.00 0.00 59 1011.9
20260510040914 19 179 0.0 0.0 0.00 0.00 0.00 59 1011.7
20260510040410 19 179 0.0 0.0 0.00 0.00 0.00 59 1011.7
20260510035906 20 181 0.0 0.0 0.00 0.00 0.00 59 1011.5
20260510035402 20 191 0.0 0.0 0.00 0.00 0.00 59 1011.8
20260510034857 20 183 0.0 0.0 0.00 0.00 0.00 59 1011.8
20260510034356 20 194 0.0 0.0 0.00 0.00 0.00 59 1011.9
20260510033852 20 201 0.0 0.0 0.00 0.00 0.00 58 1011.7
20260510033348 20 205 0.0 0.0 0.00 0.00 0.00 57 1011.7
20260510032844 20 198 0.0 0.0 0.00 0.00 0.00 56 1011.8
20260510032342 20 193 0.0 0.0 0.00 0.00 0.00 56 1011.8
20260510031837 20 184 0.0 0.0 0.00 0.00 0.00 55 1011.8
20260510031333 20 191 0.0 0.0 0.00 0.00 0.00 55 1011.9
20260510030833 20 175 0.0 0.0 0.00 0.00 0.00 54 1012.0
20260510030329 20 180 0.0 0.0 0.00 0.00 0.00 54 1011.9
20260510025826 20 199 0.0 0.0 0.00 0.00 0.00 53 1011.6
20260510025324 20 180 0.0 0.0 0.00 0.00 0.00 52 1011.9
20260510024821 20 177 0.0 0.0 0.00 0.00 0.00 52 1011.7
20260510024318 20 179 0.0 0.0 0.00 0.00 0.00 52 1011.6
20260510023814 20 188 0.0 0.0 0.00 0.00 0.00 52 1011.6
20260510023310 20 181 0.0 0.0 0.00 0.00 0.00 53 1011.7
20260510022808 20 214 0.0 0.0 0.00 0.00 0.00 52 1011.5
20260510022307 20 186 0.0 0.0 0.00 0.00 0.00 55 1011.6
20260510021806 20 221 0.0 0.0 0.00 0.00 0.00 58 1011.5
20260510021304 21 221 0.0 0.0 0.00 0.00 0.00 52 1011.4
20260510020759 21 203 0.0 0.0 0.00 0.00 0.00 46 1011.5
20260510020254 21 187 0.0 0.0 0.00 0.00 0.00 48 1011.1
20260510015750 20 214 0.0 0.0 0.00 0.00 0.00 53 1011.3
20260510015247 21 209 0.0 0.0 0.00 0.00 0.00 51 1011.0
20260510014742 21 201 0.0 0.0 0.00 0.00 0.00 52 1010.9
20260510014239 22 187 0.0 0.0 0.00 0.00 0.00 47 1010.9
20260510013735 21 189 0.0 0.0 0.00 0.00 0.00 48 1010.9
20260510013231 21 195 0.0 0.0 0.00 0.00 0.00 50 1011.1
20260510012725 20 179 0.0 0.0 0.00 0.00 0.00 52 1010.8
20260510012220 20 208 0.0 0.0 0.00 0.00 0.00 55 1010.9
20260510011714 21 214 0.0 0.0 0.00 0.00 0.00 55 1010.6
20260510011210 21 211 0.0 0.0 0.00 0.00 0.00 54 1010.7
20260510010707 21 210 0.0 0.0 0.00 0.00 0.00 54 1010.4
20260510010204 22 210 0.0 0.0 0.00 0.00 0.00 52 1010.5
20260510005701 22 210 0.0 0.0 0.00 0.00 0.00 52 1010.4
20260510005157 23 201 0.0 0.0 0.00 0.00 0.00 46 1010.4
20260510004655 23 197 0.0 0.0 0.00 0.00 0.00 46 1010.5
20260510004153 23 201 0.0 0.0 0.00 0.00 0.00 45 1010.4
20260510003604 25 210 0.0 0.0 0.00 0.00 0.00 42 1010.1
20260510003100 25 210 0.0 0.0 0.00 0.00 0.00 42 1010.1
20260510002555 25 206 0.0 0.0 0.00 0.00 0.00 42 1010.0
20260510002052 25 216 0.0 0.0 0.00 0.00 0.00 46 1010.2
20260510001549 25 202 0.0 0.0 0.00 0.00 0.00 44 1009.9
20260510001048 26 206 0.0 0.0 0.00 0.00 0.00 43 1010.1
20260510000542 26 211 0.0 0.0 0.00 0.00 0.00 43 1010.0
20260510000039 26 218 0.0 0.0 0.00 0.00 0.00 40 1010.0
20260509235536 26 228 0.0 0.0 0.00 0.00 0.00 40 1009.8
20260509235033 26 221 0.0 0.0 0.00 0.00 0.00 40 1010.0
20260509234529 26 227 0.0 0.0 0.00 0.00 0.00 41 1010.1
20260509234027 26 207 0.0 0.0 0.00 0.00 0.00 39 1009.6
20260509233524 26 230 0.0 0.0 0.00 0.00 0.00 38 1009.9
20260509233021 27 215 0.0 0.0 0.00 0.00 0.00 37 1009.9
20260509232518 27 215 0.0 0.0 0.00 0.00 0.00 37 1009.9
20260509232015 27 241 0.0 0.0 0.00 0.00 0.00 37 1009.8
20260509231511 27 227 0.0 0.0 0.00 0.00 0.00 38 1009.8
20260509231008 27 245 0.0 0.0 0.00 0.00 0.00 37 1009.9
20260509230505 27 266 0.0 0.0 0.00 0.00 0.00 37 1009.6
20260509225242 27 243 0.0 0.0 0.00 0.00 0.00 37 1009.7